Regional Weather Roundup
Issued by NWS Charleston, SC

Current Version | Previous Version | Graphics & Text | Print | Product List | Glossary On
Versions: 1 2 3 4 5 6 7 8 9 10 11 12 13 14 15 16 17 18 19 20 21 22 23 24 25 26 27 28 29 30 31 32 33 34 35 36 37 38 39 40 41 42 43 44 45 46 47 48 49 50
000
ASUS42 KCHS 261625
RWRCHS

REGIONAL WEATHER ROUNDUP
NATIONAL WEATHER SERVICE CHARLESTON SC
1100 AM EST WED NOV 26 2014

NOTE: "FAIR" INDICATES FEW OR NO CLOUDS BELOW 12,000 FEET WITH NO
SIGNIFICANT WEATHER AND/OR OBSTRUCTIONS TO VISIBILITY.

NOT ALL STATIONS ARE QUALITY CONTROLLED BY THE NATIONAL
WEATHER SERVICE. USE DATA WITH CAUTION...ESPECIALLY
DEWPOINT OBSERVATIONS.

SCZ027-030-031-034>040-042>050-261700-
...SOUTHEAST SOUTH CAROLINA...

CITY           SKY/WX    TMP DP  RH WIND       PRES   REMARKS
N CHARLESTON   CLOUDY    52  50  93 W12G21    30.01R
WATERFRONT PRK   N/A     54 N/A N/A NW8G16      N/A
MOUNT PLEASANT NOT AVBL
JOHNS ISLAND   CLOUDY    54  54 100 W16G22    30.02R
PINOPOLIS        N/A     54  50  87 N12       29.86R
MONCKS CORNER    N/A     52  52 100 W8        30.00R
SUMMERVILLE    CLOUDY    52  52 100 W5        30.02R
BEAUFORT MCAS  CLOUDY    53  50  89 W9        30.04R
BEAUFORT ARPT  CLOUDY    54  52  94 W10       30.03F
HILTON HEAD IS CLOUDY    54  52  94 W6        30.05R
WALTERBORO     CLOUDY    52 N/A N/A W10       30.04R
ALLENDALE      CLOUDY    54  50  87 CALM      30.04S

...SOUTHERN MIDLANDS AND PEE DEE...

CITY           SKY/WX    TMP DP  RH WIND       PRES   REMARKS
GEORGETOWN     NOT AVBL
KINGSTREE      NOT AVBL
ORANGEBURG     CLOUDY    50  47  89 NW6       30.02R
BARNWELL         N/A     54  50  87 NW5       30.05R
AIKEN          PTSUNNY   52  48  87 NW7       30.06R
MANNING        NOT AVBL
COLUMBIA       CLOUDY    51  46  83 NW8       30.01S
SUMTER         LGT RAIN  48  45  87 NW9       29.98F FOG
FLORENCE       LGT RAIN  51  48  89 N9        29.93F
MYRTLE BEACH   LGT RAIN  52  48  87 N12       29.91R
N MYRTLE BEACH LGT RAIN  51  49  92 NW8       29.87R

$$

GAZ063-065-086>088-099>101-113>116-118-119-134>141-150-261700-
...SOUTHEAST GEORGIA...

CITY           SKY/WX    TMP DP  RH WIND       PRES   REMARKS
SAVANNAH ARPT  CLOUDY    54  48  82 W12       30.07R
HUNTER AAF     CLOUDY    52  51  95 W13       30.05R
FORT STEWART   CLOUDY    52  48  87 W10       30.08R
STATESBORO     NOT AVBL
SYLVANIA       CLOUDY    51  50  95 W7        30.08R
CLAXTON        PTSUNNY   54  36  50 W7        30.09S

...CSRA...CENTRAL AND FAR SOUTHEAST GEORGIA...

CITY           SKY/WX    TMP DP  RH WIND       PRES   REMARKS
THOMSON        MOSUNNY   54  51  87 W3        30.11R
AUGUSTA-BUSH   PTSUNNY   53  48  83 VRB6      30.05S
AUGUSTA-DANIEL PTSUNNY   54  47  77 VRB7      30.06R
SWAINSBORO     PTSUNNY   55  52  88 NW10      30.09R
VIDALIA        MOSUNNY   54  46  76 W8        30.10S
HAZLEHURST     FAIR      56  48  74 NW5       30.10S
ALMA           MOSUNNY   54  46  74 W8        30.11R
WAYCROSS       MOSUNNY   58  50  75 NW13      30.11F
JESUP          PTSUNNY   55  50  82 NW6       30.09F
BAXLEY         FAIR      55  46  71 W8        30.10S
BRUNSWICK      CLOUDY    52  50  93 W7        30.11S
SAINT SIMONS   CLOUDY    51  49  92 W10       30.10S

$$

SCZ027-028-034-036>038-045-046-048>050-GAZ119-141-261700-
...LAKE AND SUPPLEMENTAL COASTAL OBSERVATIONS...

STATION/POSITION TIME  TEMP    WIND        PRES    WAVE   SWELL
                       AIR SEA DIR/SP/G            HT/PER HT/PER/DIR
                 (UTC) (F)     (DEG/KT/KT) (MB)    (FT/S) (FT/S/D)
UPR LAKE MARION  NOT AVBL
WINYAH BAY       1600   50     320/  7     1012.0F
LAKE MURRAY      1500   47     350/  3/  9 1015.6F
ACE BASIN NERRS  1600   52     280/  4     1016.0S
FORT PULASKI     1600   53     290/ 13/ 15 1017.9R
SAPELO ISLAND    1600   53     280/ 12     1019.0R

$$

ANZ835-935-AMZ111-154-330-350-352-354-370-450-454-472-261700-
...C-MAN AND BUOY OBSERVATIONS...

STATION/POSITION TIME  TEMP    WIND        PRES    WAVE   SWELL
                       AIR SEA DIR/SP/G            HT/PER HT/PER/DIR
                 (UTC) (F)     (DEG/KT/KT) (MB)    (FT/S) (FT/S/D)
FOLLY BEACH CMAN 1600   53     280/  9/ 12 1016.3R
BUOY 41004       1600   56 75  340/ 14/ 19 1012.0R   8/ 6   3/ 8
BUOY 41008       1600   54 65  310/ 14/ 16 1017.5R   4/ 4   2/110/ 9
CAPERS NEARSHORE 1500   52     340/ 16/ 19   N/A
FRIPP NEARSHORE  NOT AVBL


STATION/POSITION TIME  TEMP    WIND        PRES    WAVE   SWELL
                       AIR SEA DIR/SP/G            HT/PER HT/PER/DIR
                 (UTC) (F)     (DEG/KT/KT) (MB)    (FT/S) (FT/S/D)
5E ST. MARYS GA  1600      63                N/A     4/10
FRYING PAN BUOY  1600   58 72  300/ 21/ 25 1009.9R   8/ 8   7/180/ 8
BUOY 41025       1600   76     180/ 25/ 29 1006.2F  12/ 8   2/ 90/15
CAPE LOOKOUT NC  1600   68     230/ 18/ 24 1006.0F
BUOY 41002       1526   76 73  190/ 23/ 27 1013.7F   9/ 7   2/100/15
BUOY 41010       1600   71 78  290/ 25/ 31 1015.5R   9/ 7   3/ 40/16
ST AUGUSTINE FL  1600   51     300/  6/  8 1019.8F


$$



USA.gov is the U.S. government's official web portal to all federal, state and local government web resources and services.